Showing default

GJZ 03, 62292

Orbit data source: Space-Track

GJZ 03, 62292 is a payload satellite owned by CASC (CN) in LEO that was launched on Thu, 12 Dec 2024 UTC via a CHANG ZHENG 2D/YZ-3 launch vehicle from the Jiuquan Satellite Launch Center, China (JSC). Payload-class satellites include a variety of spacecraft equipped with specific instruments for various scientific and technological missions. These include communications satellites like Starlink; space stations such as the ISS; scientific satellites like the Hubble; Earth observation satellites from companies like Planet Labs, Umbra, and HawkEye 360; GPS; miniature CubeSats for education and research; and military/defense satellites.

Loading next visibility...
Identifier
62292, 2024-238C
Orbit
LEO
Country
Flag of CNCN / PRC
Related business
Manufacturer
HITSAT
Mission
Operational Civil Communications
Bus & Motor
HARBFLAT, Unknown motor
Mass
~150 kg wet, ~150 kg dry
Launch date (UTC)
2024-12-12 (11 months ago)
Launch vehicle
CHANG ZHENG 2D/YZ-3
Launch site
Jiuquan Satellite Launch Center, China (JSC)
Object type
Payload
Rocket body
Debris
Shape & HBR
Box + 2 Pan, 1.5 m
Radar Cross Section
0.240 m², Large (>1 m²)

Expand to show TLE details & history
Last TLE update: 13 hours ago

TLE from 13 hours ago
0 GJZ 03
1 62292U 24238C   25305.62873721  .00000010  00000-0  13407-3 0  9990
2 62292  59.9132 239.7706 0023835 144.0149 216.2469 13.75164186 44594
Epoch: 2025-11-01T15:05Z
TLE epoch observation values (Epoch: 2025-11-01T15:05:22.894Z)
Latitude
-0.00006°
Longitude
-27.73091°
Altitude
996.736 km
Speed
7.347 km/s
True Right ascension
15h 59m 04s
True Declination
0° 00' 00"
Sunlit
Object was in daylight at epoch
Visualization orbit readout
Latitude
Unknown
Longitude
Unknown
Altitude
Unknown
Speed
Unknown
Apparent Right ascension
Unknown
Apparent Declination
Unknown
Sunlit
N/A
Visualization observer readout
Local Sidereal Time
23:28:49
Azimuth
Unknown
Elevation
Unknown
Doppler factor
Unknown
Orbital elements
Apogee altitude
997.896 km
Perigee altitude
962.818 km
Semi-major axis
7,358.494 km
Eccentricity
0.00238
Inclination
59.9132°
RAAN
239.7706°
Arg. of periapsis
144.0149°
True anomaly
216.0858°
Mean anomaly
216.2469°
Eccentric anomaly
216.16631°
Mean motion
3.43843 °/min
Orbital period
104.7 mins
BSTAR
0.00013407
Loading maneuver chart data...
Computing Atmospheric mass density...
Loading historical data...
Loading historical data...
Loading historical data...
Loading historical data...
Loading historical data...
Loading historical data...
Loading historical data...
Other satellites on launch #238 in the year 2024 (2024-12-12 UTC)

Documentation

Showing up to 5 results
|